ROMMA est une association bénévole à but non lucratif. Votre soutien est indispensable : ADHERER à ROMMA ou FAIRE un DON

Montélimar - (26, Drôme)

Basse vallée du Rhône (88 m)   Longitude: 04° 45' E   Latitude: 44° 32' N Station partenaire n°164
 

Détail journalier du     <<     >>

Température Precipitation Humidité Pression Vent Dir Rafale Dir. rafale Ensol.
Heure (°C) (mm) (%) (hPa) (km/h) (km/h) (min)
01:00 15.5075101600---0
02:00 14.5077101600---0
03:00 13.6079101500---0
04:00 13.5081101500---0
05:00 13.8081101400---0
06:00 13.7081101400---0
07:00 13.6081101400---0
08:00 13.8081101400---0
09:00 14.6080101400---40
10:00 15.8076101400---7
11:00 17.0071101400---6
12:00 17.3071101400---0
13:00 18.1069101400---0
14:00 18.1075101400---0
15:00 19.30691013010NNO0
16:00 19.307010131---13NNO0
17:00 19.6068101300---0
18:00 20.3064101200---8
19:00 20.5065101200---3
20:00 18.9073101300---0
21:00 17.8079101300---0
22:00 17.0082101300---0
23:00 16.6083101300---0
minuit 16.2083101300---0

Graphique du 24-09-2019

 

Serveur OMMA